Погода в Конезаводе

Россия / Самарская область     53°34′59″N   50°38′54″E
темп.,
°C
ветер,
м/с
пор.,
м/с
влажн.,
%
обл.,
%
осадки,
мм/ч
давл.,
гПа
погр.,
м
10 мая, пн
пн1001:00+16юв3963100 0.1 1014150
04:00+15вюв476499 0.2 1015115
07:00+16вюв4963100 0.0 1016242
10:00+21вюв684482 0.0 1017713
13:00+24вюв5735100 0.0 10172249
16:00+24юв6734100 0.0 10172590
19:00+21вюв3553100 0.0 101899
22:00+17в495790 0.0 1020138
11 мая, вт
вт1101:00+15в4758100 0.0 1020104
04:00+14всв4116096 0.0 1021181
07:00+16в51064100 0.0 1022259
10:00+20вюв585294 0.0 1024519
13:00+24вюв6737100 0.0 10242484
16:00+24вюв453757 0.0 10242294
19:00+20в375696 0.0 1025148
22:00+16в356554 0.0 102660
12 мая, ср
ср1201:00+15вюв22676 0.0 102625
04:00+14вюв346689 0.0 102647
07:00+16вюв3866100 0.0 1027241
10:00+20вюв584997 0.0 1027627
13:00+20ююв265067 0.0 1027792
16:00+23юв563046 0.0 10262024
19:00+20вюв345311 0.0 102671
22:00+16вюв33605 0.0 102732
13 мая, чт
чт1301:00+15в335892 0.0 102739
04:00+14вюв3960100 0.0 1027148
07:00+16вюв4106113 0.0 1027294
10:00+21вюв68435 0.0 1026714
13:00+24юв67355 0.0 10261485
16:00+25юв56351 0.0 10251630
19:00+22юв37524 0.0 1025162
22:00+17вюв34544 0.0 102558
14 мая, пт
пт1401:00+16вюв3456100 0.0 102545
04:00+15вюв345799 0.0 102658
07:00+17вюв375989 0.0 1026202
10:00+23юв464286 0.0 1025525
13:00+26ююв563495 0.0 10241197
16:00+27ю56295 0.0 10241913
19:00+24юв3347100 0.0 102341
22:00+19ююв3353100 0.0 102322